Preview of NWS' New Version of Forecast
This preview is not operational and should not be used for support decisions.

Regional Weather Roundup (RWR)

Issued by National Weather Service (NWS)

                            
566 
ASUS45 KBOU 212310
RWRCO 

WEATHER ROUNDUP FOR COLORADO
NATIONAL WEATHER SERVICE DENVER/BOULDER CO
500 PM MDT THU JUN 21 2018

NOTE: "FAIR" INDICATES FEW OR NO CLOUDS BELOW 12000 FEET WITH NO
SIGNIFICANT WEATHER AND/OR OBSTRUCTIONS TO VISIBILITY.

COZ001>005-013-030-031-220000-
...NORTHWEST COLORADO...
  
CITY           SKY/WX    TMP DP  RH WIND       PRES   REMARKS
CRAIG          FAIR      89  24   9 W24G33    30.06F                  
HAYDEN         FAIR      81  34  18 S9        30.12F                  
MEEKER         FAIR      87  20   8 W21G33    30.10F                  
RANGELY        FAIR      94  27   9 W15G32    29.98F                  
RABBIT EARS PA MOCLDY    59  32  36 W6G20     30.46F                  
STEAMBOAT SPGS FAIR      78  36  21 SE10      30.14F                  
WALDEN         FAIR      75  28  17 W13G21    30.26F                  
$$

COZ006>008-011-220000-
...WEST CENTRAL VALLEYS...
  
CITY           SKY/WX    TMP DP  RH WIND       PRES   REMARKS
GRAND JUNCTION FAIR      98  25   7 W17G25    29.95F                  
MONTROSE       FAIR      93  16   6 NE10      30.05F                  
EAGLE          FAIR      89  25  10 W23G31    30.13F                  
RIFLE          FAIR      94  22   7 W14G25    30.02F                  
DELTA          FAIR      98  22   6 S8        30.00F                  
NUCLA          NOT AVBL                                               
$$

COZ017>023-064>068-220000-
...SOUTHWEST COLORADO...
  
CITY           SKY/WX    TMP DP  RH WIND       PRES   REMARKS
DURANGO        FAIR      90  24   9 W17       30.15F                  
CORTEZ         FAIR      93  22   7 W15G26    30.10F                  
PAGOSA SPRINGS FAIR      86   0   4 SW13G20   30.24F                  
TELLURIDE      FAIR      81  13   8 SW9G20    30.37F                  
WOLF CREEK PAS FAIR      63  21  20 SW6G29    30.65S                  
$$

COZ009-010-012-014-032>034-037-058>063-220000-
...CENTRAL COLORADO...
  
CITY           SKY/WX    TMP DP  RH WIND       PRES   REMARKS
ASPEN          FAIR      82  23  11 VRB7G23   30.22F                  
BUENA VISTA    FAIR      84  11   6 SW8G28    30.23S                  
COPPER MTN     PTSUNNY   64  19  17 W21G29    30.59S                  
BERTHOUD PASS  FAIR      52  36  54 N8G22     30.62S                  
COTTONWOOD PAS FAIR      81   1   4 NW5G23    30.40F                  
GUNNISON       FAIR      83  22  10 SW13G22   30.22F                  
GRANBY         FAIR      75  31  20 W5        30.29S                  
KREMMLING      FAIR      88  21   8 SW6       30.20F                  
LEADVILLE      FAIR      68  24  19 W12G24    30.41F                  
MONARCH PASS   FAIR      64  14  14 MISG      30.69F                  
SALIDA         FAIR      89  15   6 W13G26    30.26F                  
SUNLIGHT       FAIR      68  23  18 SW12G26   30.50F                  
WILKERSON PASS FAIR      70  10  10 SW6       30.55F                  
$$

COZ069>075-220000-
...SAN LUIS VALLEY/SANGRE DE CRISTO MOUNTAINS...
  
CITY           SKY/WX    TMP DP  RH WIND       PRES   REMARKS
ALAMOSA        FAIR      84  24  11 MISG      30.21F                  
DEL NORTE      FAIR      80  28  15 E12       30.25F                  
LA VETA PASS   FAIR      77  21  12 S16G24    30.56F                  
SAGUACHE       FAIR      81  27  13 SW13G20   30.22F                  
$$

COZ035-036-038>040-220000-
...NORTHERN COLORADO FRONT RANGE...
  
CITY           SKY/WX    TMP DP  RH WIND       PRES   REMARKS
DENVER INTL AP PTSUNNY   82  44  26 N12G17    30.11R                  
AURORA         PTSUNNY   80  43  26 NE12      30.10R                  
FRONT RANGE AP PTSUNNY   82  41  23 NE8       30.14R                  
ERIE MUNI ARPT FAIR      79  46  31 NE8       30.14S                  
BOULDER MUN AP FAIR      73  52  46 NW15      30.12R                  
CENTENNIAL     FAIR      83  44  25 NE9G23    30.11R                  
BROOMFIELD     PTSUNNY   75  50  41 NE17      30.09F                  
FORT COLLINS   FAIR      82  50  32 CALM      30.08F                  
LONGMONT       FAIR      77  54  43 SW6       30.13R                  
$$

COZ041-046-047-076>085-087-088-220000-
...PIKES PEAK/PALMER DIVIDE AND SOUTHERN FOOTHILLS...
  
CITY           SKY/WX    TMP DP  RH WIND       PRES   REMARKS
COLO. SPRINGS  PTSUNNY   83  39  21 S6        30.12S                  
A. F. ACADEMY  FAIR      81  40  22 S14       30.14F                  
SCHRIEVER AFB  NOT AVBL                                               
CHEYENNE MTN   PTSUNNY   77  37  23 S3        30.14F                  
ELLICOTT         N/A    N/A N/A N/A VRB5G20   30.11F                  
FALCON         CLOUDY    79  33  19 E9        30.19F                  
FORT CARSON    FAIR      85  39  20 S9        30.08F                  
LIMON          FAIR      83  42  23 VRB5G18   30.09S                  
MONUMENT HILL  FAIR      73  45  35 NE10G17   30.21F                  
CANON CITY     SUNNY     93  37  14 E15G21    30.03F                  
WALSENBURG     FAIR      93  27   9 E5G16     30.08S                  
TRINIDAD       FAIR      91  33  12 SE6G17    30.07F                  
$$

COZ042>045-048>051-090-091-220000-
...NORTHEAST COLORADO...
  
CITY           SKY/WX    TMP DP  RH WIND       PRES   REMARKS
GREELEY ARPT   FAIR      81  55  40 SE7       30.06F                  
AKRON          FAIR      79  52  38 NE8       30.08F                  
BURLINGTON     FAIR      82  51  34 N10       30.05F                  
WRAY           FAIR      82  46  28 NE8G17    30.04F                  
YUMA           FAIR      77   9   7 E9        30.05F                  
STERLING       FAIR      79  54  41 NE7       30.03F                  
HOLYOKE        FAIR      82  46  28 N9G18     30.05S                  
FORT MORGAN    FAIR      80  49  34 E7        30.07F                  
$$

COZ086-089-092>099-220000-
...SOUTHEAST COLORADO...
  
CITY           SKY/WX    TMP DP  RH WIND       PRES   REMARKS
PUEBLO         FAIR      91  43  18 SE14G20   29.99F                  
LA JUNTA       FAIR      92  46  20 E9G20     29.98F                  
LAMAR          FAIR      88  54  31 E15       29.96F                  
SPRINGFIELD      N/A     91  39  16 NW6       29.99F                  
$$